K1TTC Weather Reports


time (UTC)temp
C
wind
direction
speed
KPH
gust
KPH
rain 1hr
cm
rain 24hr
cm
rain mn
cm
humidity
%
barometer
mb
20260906003752 18 24 0.0 0.0 0.00 0.00 0.00 69 1014.4
20260906002753 18 24 0.0 0.0 0.00 0.00 0.00 69 1014.3
20260906001753 18 24 0.0 1.6 0.00 0.00 0.00 68 1014.2
20260906000754 18 24 0.0 3.2 0.00 0.00 0.00 68 1014.2
20260905235752 18 32 0.0 3.2 0.00 0.00 0.00 67 1014.3
20260905234752 18 156 0.0 0.0 0.00 0.00 0.00 67 1014.2
20260905233753 18 156 0.0 0.0 0.00 0.00 0.00 67 1014.1
20260905232749 18 156 0.0 0.0 0.00 0.00 0.00 67 1014.0
20260905231752 18 156 0.0 0.0 0.00 0.00 0.00 67 1014.0
20260905230749 18 156 0.0 0.0 0.00 0.00 0.00 67 1013.9
20260905225747 18 156 0.0 0.0 0.00 0.00 0.00 67 1013.8
20260905224749 19 156 0.0 0.0 0.00 0.00 0.00 67 1013.7
20260905223747 19 156 0.0 0.0 0.00 0.00 0.00 66 1013.7
20260905222745 19 158 0.0 0.0 0.00 0.00 0.00 66 1013.6
20260905221745 19 178 0.0 3.2 0.00 0.00 0.00 66 1013.6
20260905220745 19 109 0.0 3.2 0.00 0.00 0.00 65 1013.7
20260905215740 19 355 1.6 4.8 0.00 0.00 0.00 65 1013.4
20260905214739 19 51 0.0 3.2 0.00 0.00 0.00 64 1013.3
20260905213734 19 104 0.0 3.2 0.00 0.00 0.00 64 1013.3
20260905212733 19 351 0.0 6.4 0.00 0.00 0.00 64 1013.0
20260905211731 19 20 3.2 16.1 0.00 0.00 0.00 64 1012.9
20260905210731 20 126 1.6 9.7 0.00 0.00 0.00 65 1012.9
20260905205729 20 150 1.6 12.9 0.00 0.00 0.00 64 1013.0
20260905204728 21 123 1.6 6.4 0.00 0.00 0.00 63 1013.2
20260905203725 21 10 1.6 9.7 0.00 0.00 0.00 62 1013.1
20260905202726 22 91 3.2 12.9 0.00 0.00 0.00 59 1013.1
20260905201725 22 346 3.2 11.3 0.00 0.00 0.00 57 1012.8
20260905200721 23 124 3.2 11.3 0.00 0.00 0.00 56 1012.6
20260905195723 23 122 4.8 12.9 0.00 0.00 0.00 57 1012.3
20260905194723 23 82 3.2 8.0 0.00 0.00 0.00 57 1012.3
20260905193723 22 115 1.6 9.7 0.00 0.00 0.00 57 1012.3
20260905192721 23 143 1.6 9.7 0.00 0.00 0.00 57 1012.3
20260905191721 23 55 1.6 6.4 0.00 0.00 0.00 57 1012.2
20260905190722 23 57 1.6 6.4 0.00 0.00 0.00 56 1012.2
20260905185721 23 74 1.6 6.4 0.00 0.00 0.00 56 1012.2
20260905184721 23 106 3.2 12.9 0.00 0.00 0.00 57 1012.2
20260905183714 23 341 1.6 8.0 0.00 0.00 0.00 57 1012.3
20260905182715 23 97 1.6 8.0 0.00 0.00 0.00 58 1012.3
20260905181715 23 132 3.2 12.9 0.00 0.00 0.00 59 1012.3
20260905180713 22 134 1.6 8.0 0.00 0.00 0.00 59 1012.3
20260905175713 22 66 1.6 9.7 0.00 0.00 0.00 60 1012.3
20260905174713 22 141 1.6 8.0 0.00 0.00 0.00 61 1012.3
20260905173713 22 276 1.6 8.0 0.00 0.00 0.00 60 1012.3
20260905172714 22 61 3.2 11.3 0.00 0.00 0.00 60 1012.1
20260905171710 22 130 1.6 8.0 0.00 0.00 0.00 58 1012.1
20260905170710 22 39 3.2 17.7 0.00 0.00 0.00 56 1011.9
20260905165709 22 76 3.2 14.5 0.00 0.00 0.00 56 1011.8
20260905162925 22 18 3.2 14.5 0.00 0.00 0.00 58 1011.8
20260905145919 22 311 4.8 19.3 0.00 0.00 0.00 59 1011.8
20260905141417 20 341 3.2 16.1 0.00 0.00 0.00 65 1012.0
20260905140417 20 23 0.0 4.8 0.00 0.00 0.00 66 1012.1
20260905135413 20 18 3.2 11.3 0.00 0.00 0.00 66 1012.0
20260905134412 20 20 0.0 4.8 0.00 0.00 0.00 68 1011.9
20260905133409 20 118 0.0 3.2 0.00 0.00 0.00 69 1011.9
20260905132411 20 351 0.0 0.0 0.00 0.00 0.00 69 1011.8
20260905131409 20 351 1.6 12.9 0.00 0.00 0.00 70 1011.7
20260905130411 19 351 3.2 11.3 0.00 0.00 0.00 71 1011.6
20260905125409 19 299 3.2 11.3 0.00 0.00 0.00 73 1011.5
20260905124408 18 13 1.6 8.0 0.00 0.00 0.00 74 1011.5
20260905123407 18 87 0.0 4.8 0.00 0.00 0.00 75 1011.3
20260905122408 18 351 0.0 6.4 0.00 0.00 0.00 76 1011.2
20260905121601 17 346 0.0 4.8 0.00 0.00 0.00 76 1011.2
20260905120404 17 357 0.0 4.8 0.00 0.00 0.00 76 1011.0
20260905115404 17 351 1.6 12.9 0.00 0.00 0.00 76 1011.0
20260905114403 17 41 1.6 8.0 0.00 0.00 0.00 76 1011.0
20260905113403 17 346 1.6 9.7 0.00 0.00 0.00 77 1010.8
20260905112403 16 357 1.6 9.7 0.00 0.00 0.00 76 1010.7
20260905111403 -17 0.0 0.0 0.00 0.00 0.00 1010.8
20260905110404 -17 0.0 0.0 0.00 0.00 0.00 1010.7
20260905105403 -17 0.0 0.0 0.00 0.00 0.00 1010.7
20260905104406 -17 0.0 0.0 0.00 0.00 0.00 1010.7
20260905103404 -17 0.0 0.0 0.00 0.00 0.00 1010.7
20260905102404 -17 0.0 0.0 0.00 0.00 0.00 1010.6
20260905101403 -17 0.0 0.0 0.00 0.00 0.00 1010.5
20260905094331 -17 0.0 0.0 0.00 0.00 0.00 1010.4
20260905090320 -17 0.0 0.0 0.00 0.00 0.00 1010.3
20260905085321 -17 0.0 0.0 0.00 0.00 0.00 1010.1
20260905084303 -17 0.0 0.0 0.00 0.00 0.00 1010.1
20260905083304 -17 0.0 0.0 0.00 0.00 0.00 1010.3
20260905082431 -17 0.0 0.0 0.00 0.00 0.00 1010.1
20260905081304 -17 0.0 0.0 0.00 0.00 0.00 1010.0
20260905080307 -17 0.0 0.0 0.00 0.00 0.00 1010.1
20260905075306 -17 0.0 0.0 0.00 0.00 0.00 1009.9
20260905074304 -17 0.0 0.0 0.00 0.00 0.00 1010.0
20260905073231 -17 0.0 0.0 0.00 0.00 0.00 1010.1
20260905072232 -17 0.0 0.0 0.00 0.00 0.00 1010.2
20260905071231 -17 0.0 0.0 0.00 0.00 0.00 1010.1
20260905070232 -17 0.0 0.0 0.00 0.00 0.00 1010.1
20260905065231 -17 0.0 0.0 0.00 0.00 0.00 1010.2
20260905064231 -17 0.0 0.0 0.00 0.00 0.00 1010.3
20260905063229 -17 0.0 0.0 0.00 0.00 0.00 1010.4
20260905062231 -17 0.0 0.0 0.00 0.00 0.00 1010.5
20260905061350 -17 0.0 0.0 0.00 0.00 0.00 1010.5
20260905060230 -17 0.0 0.0 0.00 0.00 0.00 1010.5
20260905055230 -17 0.0 0.0 0.00 0.00 0.00 1010.6
20260905054231 -17 0.0 0.0 0.00 0.00 0.00 1010.5
20260905053230 -17 0.0 0.0 0.00 0.00 0.00 1010.6
20260905052222 -17 0.0 0.0 0.00 0.00 0.00 1010.5
20260905051222 -17 0.0 0.0 0.00 0.00 0.00 1010.7
20260905045204 -17 0.0 0.0 0.00 0.00 0.00 1010.6
20260905044204 -17 0.0 0.0 0.00 0.00 0.00 1010.5
20260905043203 -17 0.0 0.0 0.00 0.00 0.00 1010.5
20260905042206 -17 0.0 0.0 0.00 0.00 0.00 1010.7
20260905041203 -17 0.0 0.0 0.00 0.00 0.00 1010.6
20260905040204 -17 0.0 0.0 0.00 0.00 0.00 1010.6
20260905035203 -17 0.0 0.0 0.00 0.00 0.00 1010.5
20260905034205 -17 0.0 0.0 0.00 0.00 0.00 1010.6
20260905033203 -17 0.0 0.0 0.00 0.00 0.00 1010.7
20260905032205 -17 0.0 0.0 0.00 0.00 0.00 1010.7
20260905031202 -17 0.0 0.0 0.00 0.00 0.00 1010.7
20260905030205 -17 333 0.0 0.0 0.00 0.00 0.00 1010.7
20260905025201 20 333 0.0 0.0 0.00 0.00 0.00 61 1010.8
20260905024201 20 333 0.0 0.0 0.00 0.00 0.00 61 1010.8
20260905023200 -17 333 0.0 0.0 0.00 0.00 0.00 1010.9
20260905022203 70 333 0.0 0.0 0.00 0.00 0.00 75 1011.0
20260905021202 20 333 0.0 0.0 0.00 0.00 0.00 60 1011.0
20260905020201 20 333 0.0 0.0 0.00 0.00 0.00 60 1011.0
20260905015201 21 341 0.0 0.0 0.00 0.00 0.00 59 1011.0
20260905014201 21 341 0.0 0.0 0.00 0.00 0.00 59 1011.1
20260905013202 21 341 0.0 0.0 0.00 0.00 0.00 58 1011.2
20260905012203 21 341 0.0 1.6 0.00 0.00 0.00 57 1011.2
20260905011202 22 355 0.0 0.0 0.00 0.00 0.00 57 1011.2
20260905010201 22 355 0.0 0.0 0.00 0.00 0.00 56 1011.2
20260905005201 22 355 0.0 0.0 0.00 0.00 0.00 56 1011.2
20260905004201 22 351 0.0 0.0 0.00 0.00 0.00 56 1011.0